Showing default

XJS A, 43518

Orbit data source: Space-Track

XJS A, 43518 is a payload satellite owned by PLA SSF (CN) in LEO that was launched on Wed, 27 Jun 2018 UTC via a CHANG ZHENG 2C launch vehicle from the Xichang Space Center, China (XSC). Payloads include a variety of satellites, spacecraft, and rockets equipped with specific instruments for various scientific and technological missions. These include communications satellites like Starlink; space stations such as the ISS; scientific satellites like the Hubble; Earth observation satellites from companies like Planet Labs, Umbra, and HawkEye 360; GPS; miniature CubeSats for education and research; and military/defense satellites.

Loading next visibility...
XJS A details
Identifier
43518, 2018-054A
Orbit
LEO
Last TLE update15 hours ago
Origin
Flag of CNPLA SSF (CN / PRC)
ManufacturerSECM
MissionOperational Civil Technology
Bus & MotorUnknown
Mass~500 kg wet, ~500 kg dry
Launch date (UTC)
2018-06-27 (6 years ago)
Launch vehicle
CHANG ZHENG 2C
Launch site
Xichang Space Center, China (XSC)
Object type
Payload
Rocket body
Debris
Shape & HBRBox + 2 Pan, 1 m
Radar Cross Section0.446 m², Large (>1 m²)

Expand to show TLE details & history

TLE from 15 hours ago
0 XJS A
1 43518U 18054A   24348.59295582  .00062754  00000-0  13884-2 0  9995
2 43518  35.0549  35.8697 0019606 285.1322  74.7231 15.42470732362147
Epoch: 2024-12-13T14:13Z
Definitive object data (Epoch: 2024-12-13T14:13:51.382Z)
Latitude-0.00004°
Longitude99.64884°
Altitude434.227 km
Speed7.655 km/s
True Right ascension02h 23m 28s
True Declination0° 00' 00"
Sunlit
Object was in full shadow at TLE epoch
Visualization TLE readout
Latitude8.92478°
Longitude-97.17418°
Altitude444.688 km
Speed7.644 km/s
Apparent Right ascension14h 11m 28s
Apparent Declination-15° 07' 17"
Sunlit
Object is in daylight
Visualization observer readout
Local Sidereal Time03:28:14
Azimuth39.503° NE
Elevation-60.073°
Doppler factor1
Orbital elements
Apogee altitude455.461 km
Perigee altitude428.717 km
Semi-major axis6,820.226 km
Eccentricity0.0019606
Inclination35.0549°
RAAN35.8697°
Arg. of periapsis285.1322°
True anomaly74.93997°
Mean anomaly74.7231°
Eccentric anomaly74.83152°
Mean motion3.85341 °/min
BSTAR0.0013884
Orbital period93.42 mins
Loading maneuver chart data...
Loading historical data...
Loading historical data...
Loading historical data...
Loading historical data...
Loading historical data...
Loading historical data...
Loading historical data...
Other satellites on launch #54 in the year 2018 (2018-06-27 UTC)

XJS A Visibility forecast

Observer location: undefined°, undefined

Span
Click to sort rows by Start time (UTC) header in descending order
Start Az.
Max El. time (UTC)
Max El. Az.
Max El.
End time (UTC)
End Az.
5 mins2024-12-14 07:34:16.508Z211.597° SW2024-12-14 07:36:16.508Z174.638° S20.14°2024-12-14 07:39:16.508Z113.177° SE
4 mins2024-12-14 09:13:16.508Z227.194° WSW2024-12-14 09:15:16.508Z159.052° S29.634°2024-12-14 09:17:16.508Z116.328° SE
4 mins2024-12-14 10:51:16.508Z236.362° WSW2024-12-14 10:53:16.508Z183.43° SSW24.47°2024-12-14 10:55:16.508Z140.816° SSE
|